Casper, WY

2:03 PM MST on December 06, 2019 (GMT -0700)
Natrona County International

Weather History for KCPR - October, 2019

Change the Weather History Date:

Thursday, October 3, 2019

  Actual Average Record
Temperature  
Mean Temperature 45 °F 50 °F  
Max Temperature 67 °F 65 °F 86 °F (2010)
Min Temperature 23 °F 35 °F 22 °F (2009)
Degree Days  
Heating Degree Days 20 15  
Month to date heating degree days 68 45  
Since 1 July heating degree days 239 330  
Cooling Degree Days 0 0  
Month to date cooling degree days 0 0  
Year to date cooling degree days 441 422  
Moisture  
Dew Point 28 °F    
Average Humidity 55    
Maximum Humidity 92    
Minimum Humidity 18    
Precipitation  
Precipitation 0.00 in 0.05 in 1.54 in (2013)
Month to date precipitation 0.22 0.13  
Year to date precipitation 10.92 10.29  
Snow  
Snow 0.00 in 0.20 in - ()
Month to date snowfall 0.0 0.6  
Since 1 July snowfall 0.0 2.4  
Since 1 September snowfall 0.0 2.4  
Snow Depth 0.00 in    
Sea Level Pressure  
Sea Level Pressure 30.11 in    
Wind  
Wind Speed 7 mph (South)    
Max Wind Speed 18 mph    
Max Gust Speed 26 mph    
Visibility 10 miles    
Events      
T = Trace of Precipitation, MM = Missing Value Source: NWS Daily Summary

Daily Weather History Graph

Daily Weather History Graph

Search for Another Location

Airport or City:

Astronomy

Oct. 03, 2019 Rise Set
Actual Time 7:05 AM MDT 6:43 PM MDT
Civil Twilight 6:36 AM MDT 7:12 PM MDT
Nautical Twilight 6:04 AM MDT 7:44 PM MDT
Astronomical Twilight 5:30 AM MDT 8:17 PM MDT
Moon 12:46 PM MDT (10/3) 10:17 PM MDT (10/3)
Length of Visible Light 12h 35m
Length of Day
11h 38m
Waxing Crescent, 30% of the Moon is Illuminated
Oct 3
Waxing Crescent
Oct 5
First Quarter
Oct 13
Full
Oct 21
Last Quarter
Oct 27
New

Hourly Weather History & Observations

Time (MDT) Temp. Windchill Dew Point Humidity Pressure Visibility Wind Dir Wind Speed Gust Speed Precip Events Conditions
12:53 AM 30.9 °F 24.3 °F 27.0 °F 85% 30.23 in 10.0 mi WSW 6.9 mph - N/A   Clear
1:53 AM 28.9 °F 21.1 °F 26.1 °F 89% 30.23 in 10.0 mi WSW 8.1 mph - N/A   Clear
2:53 AM 28.9 °F 21.9 °F 25.0 °F 85% 30.24 in 10.0 mi SW 6.9 mph - N/A   Clear
3:53 AM 27.0 °F - 23.0 °F 85% 30.23 in 10.0 mi Calm Calm - N/A   Clear
4:53 AM 28.9 °F 20.4 °F 23.0 °F 78% 30.22 in 10.0 mi SW 9.2 mph - N/A   Clear
5:53 AM 27.0 °F 23.0 °F 21.9 °F 81% 30.24 in 10.0 mi West 3.5 mph - N/A   Clear
6:53 AM 24.1 °F 19.7 °F 21.9 °F 91% 30.26 in 10.0 mi SW 3.5 mph - N/A   Clear
7:53 AM 28.9 °F - 27.0 °F 92% 30.26 in 10.0 mi Calm Calm - N/A   Clear
8:53 AM 34.0 °F 31.0 °F 27.0 °F 75% 30.25 in 10.0 mi East 3.5 mph - N/A   Clear
9:53 AM 37.9 °F 35.5 °F 30.0 °F 73% 30.24 in 10.0 mi East 3.5 mph - N/A   Clear
10:53 AM 45.0 °F 40.6 °F 28.9 °F 53% 30.20 in 10.0 mi ENE 8.1 mph - N/A   Clear
11:53 AM 48.9 °F - 28.9 °F 46% 30.15 in 10.0 mi ESE 6.9 mph - N/A   Clear
12:53 PM 57.9 °F - 28.9 °F 33% 30.10 in 10.0 mi SSW 9.2 mph - N/A   Clear
1:53 PM 64.0 °F - 26.1 °F 24% 30.05 in 10.0 mi SSW 17.3 mph 25.3 mph N/A   Clear
2:53 PM 66.0 °F - 25.0 °F 21% 30.02 in 10.0 mi SW 13.8 mph 20.7 mph N/A   Clear
3:53 PM 66.9 °F - 23.0 °F 19% 30.01 in 10.0 mi SSW 11.5 mph 25.3 mph N/A   Clear
4:53 PM 66.9 °F - 21.9 °F 18% 29.98 in 10.0 mi SSW 10.4 mph - N/A   Clear
5:53 PM 66.0 °F - 25.0 °F 21% 29.97 in 10.0 mi SE 3.5 mph - N/A   Clear
6:53 PM 57.0 °F - 32.0 °F 39% 30.01 in 10.0 mi East 10.4 mph - N/A   Clear
7:53 PM 53.1 °F - 34.0 °F 48% 30.01 in 10.0 mi East 9.2 mph - N/A   Clear
8:53 PM 48.9 °F - 35.1 °F 59% 30.00 in 10.0 mi North - - N/A   Clear
9:53 PM 41.0 °F 39.0 °F 34.0 °F 76% 30.01 in 10.0 mi NNE 3.5 mph - N/A   Clear
10:53 PM 39.0 °F 32.8 °F 34.0 °F 82% 29.98 in 10.0 mi North 9.2 mph - N/A   Clear
11:53 PM 39.0 °F 34.0 °F 34.0 °F 82% 29.95 in 10.0 mi NNW 6.9 mph - N/A   Clear